Location: Newark
(25.4800°N, 85.7200°E)
Time: 14:41:55
(UTC+00:00)

Vanguard 2 Rocket - Visible Passes

Search period start: 23 August 2019 00:00
Search period end: 02 September 2019 00:00
Orbit: 553 x 3327 km, 32.9° (Epoch: 22 August)

Date Brightness Start Highest point End Pass type
(mag) Time Alt. Az. Time Alt. Az. Time Alt. Az.
23 Aug 8.9 19:49:24 58° E 19:49:24 58° E 20:02:18 10° ENE visible
23 Aug 9.2 21:55:12 30° W 22:03:24 69° N 22:23:06 10° ENE visible
24 Aug 9.7 18:53:06 27° E 18:53:06 27° E 18:59:20 10° ENE visible
24 Aug 8.6 20:58:53 60° WNW 21:01:39 74° NNW 21:19:50 10° ENE visible
24 Aug 9.7 23:05:54 10° WNW 23:20:37 68° N 23:41:09 10° E visible
25 Aug 8.6 20:02:36 68° NE 20:02:36 68° NE 20:16:41 10° ENE visible
25 Aug 9.4 22:08:23 22° WNW 22:18:14 66° N 22:37:54 10° E visible
26 Aug 9.5 19:06:19 34° ENE 19:06:19 34° ENE 19:13:48 10° ENE visible
26 Aug 8.8 21:12:07 46° WNW 21:16:23 66° N 21:34:28 10° ENE visible
26 Aug 9.7 23:20:29 10° WNW 23:35:22 72° NNE 23:56:00 10° E visible
27 Aug 10.3 18:10:03 13° ENE 18:10:03 13° ENE 18:11:13 10° ENE visible
27 Aug 8.5 20:15:51 69° N 20:15:51 69° N 20:31:08 10° ENE visible
27 Aug 9.4 22:21:39 15° WNW 22:33:03 66° N 22:52:49 10° E visible
28 Aug 9.3 19:19:37 39° ENE 19:19:37 39° ENE 19:28:10 10° ENE visible
28 Aug 9.0 21:25:25 36° WNW 21:31:10 63° N 21:49:17 10° E visible
29 Aug 10.1 18:23:25 16° ENE 18:23:25 16° ENE 18:25:40 10° ENE visible
29 Aug 8.5 20:29:13 62° NNW 20:29:49 63° N 20:45:47 10° ENE visible
29 Aug 9.4 22:35:01 11° WNW 22:47:44 72° NNE 23:07:41 10° E visible
30 Aug 9.1 19:33:03 43° NE 19:33:03 43° NE 19:42:38 10° ENE visible
30 Aug 9.1 21:38:51 29° WNW 21:45:56 65° N 22:04:13 10° E visible
31 Aug 10.0 18:36:56 19° ENE 18:36:56 19° ENE 18:40:02 10° ENE visible
31 Aug 8.6 20:42:44 55° NNW 20:44:35 60° N 21:00:36 10° E visible
31 Aug 9.3 22:49:17 10° WNW 23:02:14 81° NNE 23:22:20 10° ESE visible
01 Sep 8.9 19:46:40 47° NE 19:46:40 47° NE 19:57:15 10° ENE visible
01 Sep 9.0 21:52:30 24° WNW 22:00:33 71° NNE 22:19:05 10° E visible
